TimeEDT,TemperatureF,Dew PointF,Humidity,Sea Level PressureIn,VisibilityMPH,Wind Direction,Wind SpeedMPH,Gust SpeedMPH,PrecipitationIn,Events,Conditions,WindDirDegrees,DateUTC
12:15 AM,62.6,57.2,82,29.89,8.0,South,6.9,-,N/A,,Overcast,170,2012-10-06 04:15:00
12:35 AM,62.6,59.0,88,29.89,8.0,SSE,4.6,-,0.03,,Overcast,150,2012-10-06 04:35:00
12:55 AM,60.8,59.0,94,29.88,9.0,ESE,6.9,-,0.04,,Overcast,120,2012-10-06 04:55:00
1:15 AM,60.8,57.2,88,29.87,10.0,SSE,8.1,-,N/A,,Overcast,150,2012-10-06 05:15:00
1:35 AM,60.8,59.0,94,29.86,10.0,SE,6.9,-,N/A,,Overcast,130,2012-10-06 05:35:00
1:55 AM,62.6,59.0,88,29.86,10.0,SE,6.9,-,N/A,,Overcast,140,2012-10-06 05:55:00
2:15 AM,60.8,59.0,94,29.85,10.0,SSE,4.6,-,N/A,,Overcast,150,2012-10-06 06:15:00
2:55 AM,60.8,59.0,94,29.82,10.0,SE,5.8,-,N/A,,Overcast,140,2012-10-06 06:55:00
3:15 AM,60.8,59.0,94,29.82,10.0,SE,4.6,-,N/A,,Overcast,130,2012-10-06 07:15:00
3:35 AM,60.8,59.0,94,29.81,10.0,ESE,8.1,-,N/A,,Overcast,120,2012-10-06 07:35:00
3:55 AM,60.8,57.2,88,29.81,10.0,ESE,5.8,-,N/A,,Overcast,110,2012-10-06 07:55:00
4:15 AM,60.8,57.2,88,29.80,10.0,SE,8.1,-,N/A,,Mostly Cloudy,130,2012-10-06 08:15:00
4:35 AM,60.8,57.2,88,29.79,10.0,ESE,6.9,-,N/A,,Clear,120,2012-10-06 08:35:00
4:55 AM,60.8,57.2,88,29.78,10.0,ESE,9.2,-,N/A,,Clear,120,2012-10-06 08:55:00
5:35 AM,60.8,57.2,88,29.77,10.0,SE,9.2,-,N/A,,Clear,130,2012-10-06 09:35:00
5:55 AM,60.8,57.2,88,29.77,10.0,SE,8.1,-,N/A,,Clear,140,2012-10-06 09:55:00
6:15 AM,60.8,57.2,88,29.77,10.0,SE,9.2,-,N/A,,Clear,130,2012-10-06 10:15:00
6:35 AM,60.8,57.2,88,29.76,10.0,SE,9.2,-,N/A,,Clear,130,2012-10-06 10:35:00
7:15 AM,60.8,55.4,82,29.75,10.0,SE,9.2,-,N/A,,Mostly Cloudy,140,2012-10-06 11:15:00
7:35 AM,60.8,55.4,82,29.76,10.0,SE,8.1,-,N/A,,Mostly Cloudy,140,2012-10-06 11:35:00
7:55 AM,60.8,55.4,82,29.75,10.0,SE,8.1,-,N/A,,Overcast,130,2012-10-06 11:55:00
8:15 AM,62.6,57.2,82,29.75,10.0,SE,4.6,-,N/A,,Overcast,140,2012-10-06 12:15:00
8:35 AM,62.6,57.2,82,29.75,10.0,SSE,5.8,-,N/A,,Overcast,150,2012-10-06 12:35:00
8:55 AM,62.6,57.2,82,29.74,10.0,South,5.8,-,N/A,,Overcast,180,2012-10-06 12:55:00
9:15 AM,64.4,59.0,83,29.74,10.0,South,4.6,-,N/A,,Overcast,180,2012-10-06 13:15:00
9:36 AM,64.4,59.0,83,29.73,10.0,South,5.8,-,N/A,,Overcast,180,2012-10-06 13:36:00
10:15 AM,66.2,57.2,73,29.71,10.0,SSW,4.6,-,N/A,,Overcast,200,2012-10-06 14:15:00
10:35 AM,66.2,55.4,68,29.71,10.0,SSW,3.5,-,N/A,,Overcast,200,2012-10-06 14:35:00
10:55 AM,66.2,57.2,73,29.70,10.0,SSE,3.5,-,N/A,,Overcast,160,2012-10-06 14:55:00
11:15 AM,66.2,55.4,68,29.70,10.0,Calm,Calm,-,N/A,,Overcast,0,2012-10-06 15:15:00
11:35 AM,66.2,55.4,68,29.70,10.0,WSW,8.1,16.1,N/A,,Overcast,250,2012-10-06 15:35:00
11:55 AM,66.2,55.4,68,29.71,10.0,WSW,9.2,-,N/A,,Overcast,250,2012-10-06 15:55:00
12:35 PM,64.4,57.2,77,29.71,10.0,WSW,4.6,-,N/A,,Overcast,250,2012-10-06 16:35:00
12:55 PM,62.6,55.4,77,29.72,10.0,WSW,10.4,-,N/A,,Overcast,250,2012-10-06 16:55:00
1:15 PM,62.6,55.4,77,29.72,9.0,West,12.7,19.6,N/A,,Overcast,260,2012-10-06 17:15:00
1:35 PM,57.2,51.8,82,29.73,10.0,NNW,12.7,20.7,N/A,,Overcast,330,2012-10-06 17:35:00
1:55 PM,55.4,51.8,88,29.75,10.0,North,10.4,-,N/A,,Overcast,360,2012-10-06 17:55:00
2:15 PM,53.6,51.8,94,29.77,10.0,North,8.1,-,N/A,,Overcast,360,2012-10-06 18:15:00
2:35 PM,53.6,51.8,94,29.78,10.0,North,8.1,-,N/A,,Overcast,10,2012-10-06 18:35:00
2:55 PM,53.6,51.8,94,29.79,7.0,North,4.6,-,0.11,,Overcast,360,2012-10-06 18:55:00
3:15 PM,53.6,51.8,94,29.80,9.0,NNW,4.6,-,N/A,,Overcast,340,2012-10-06 19:15:00
3:35 PM,53.6,51.8,94,29.80,10.0,North,5.8,-,N/A,,Overcast,350,2012-10-06 19:35:00
3:55 PM,53.6,51.8,94,29.80,10.0,North,5.8,-,N/A,,Overcast,360,2012-10-06 19:55:00
4:15 PM,53.6,50.0,88,29.81,10.0,North,4.6,-,N/A,,Overcast,350,2012-10-06 20:15:00
4:35 PM,51.8,50.0,94,29.81,10.0,North,4.6,-,N/A,,Overcast,360,2012-10-06 20:35:00
4:55 PM,51.8,50.0,94,29.81,10.0,Calm,Calm,-,N/A,,Overcast,0,2012-10-06 20:55:00
5:15 PM,51.8,48.2,88,29.82,10.0,Calm,Calm,-,N/A,,Overcast,0,2012-10-06 21:15:00
5:35 PM,51.8,50.0,94,29.82,10.0,Calm,Calm,-,N/A,,Overcast,0,2012-10-06 21:35:00
5:55 PM,51.8,48.2,88,29.82,10.0,Calm,Calm,-,N/A,,Overcast,0,2012-10-06 21:55:00
6:15 PM,51.8,50.0,94,29.83,10.0,NE,3.5,-,N/A,,Overcast,40,2012-10-06 22:15:00
6:35 PM,51.8,50.0,94,29.84,10.0,Calm,Calm,-,N/A,,Overcast,0,2012-10-06 22:35:00
6:55 PM,51.8,48.2,88,29.85,10.0,Calm,Calm,-,N/A,,Overcast,0,2012-10-06 22:55:00
7:15 PM,51.8,48.2,88,29.86,10.0,NW,3.5,-,N/A,,Overcast,320,2012-10-06 23:15:00
7:35 PM,51.8,48.2,88,29.87,10.0,Calm,Calm,-,N/A,,Mostly Cloudy,0,2012-10-06 23:35:00
7:55 PM,50.0,46.4,87,29.88,10.0,NW,4.6,-,N/A,,Overcast,310,2012-10-06 23:55:00
8:15 PM,51.8,42.8,71,29.89,10.0,WNW,4.6,-,N/A,,Overcast,300,2012-10-07 00:15:00
8:36 PM,50.0,39.2,66,29.89,10.0,West,3.5,-,N/A,,Partly Cloudy,260,2012-10-07 00:36:00
8:55 PM,48.2,37.4,66,29.90,10.0,West,3.5,-,N/A,,Partly Cloudy,270,2012-10-07 00:55:00
9:15 PM,48.2,37.4,66,29.90,10.0,West,4.6,-,N/A,,Mostly Cloudy,260,2012-10-07 01:15:00
9:35 PM,46.4,41.0,81,29.91,10.0,WSW,4.6,-,N/A,,Mostly Cloudy,250,2012-10-07 01:35:00
9:55 PM,48.2,41.0,76,29.92,10.0,Calm,Calm,-,N/A,,Mostly Cloudy,0,2012-10-07 01:55:00
10:15 PM,46.4,42.8,87,29.93,10.0,Calm,Calm,-,N/A,,Overcast,0,2012-10-07 02:15:00
10:35 PM,46.4,42.8,87,29.93,10.0,WNW,4.6,-,N/A,,Mostly Cloudy,290,2012-10-07 02:35:00
10:55 PM,48.2,37.4,66,29.93,10.0,West,10.4,17.3,N/A,,Partly Cloudy,280,2012-10-07 02:55:00
11:35 PM,48.2,37.4,66,29.94,10.0,West,11.5,16.1,N/A,,Clear,270,2012-10-07 03:35:00
11:55 PM,48.2,37.4,66,29.94,10.0,NW,5.8,-,N/A,,Clear,310,2012-10-07 03:55:00